TimeEDT,TemperatureF,Dew PointF,Humidity,Sea Level PressureIn,VisibilityMPH,Wind Direction,Wind SpeedMPH,Gust SpeedMPH,PrecipitationIn,Events,Conditions,WindDirDegrees,DateUTC
12:53 AM,57.9,54.0,87,29.91,10.0,Calm,Calm,-,N/A,,Clear,0,2013-10-02 04:53:00
1:53 AM,55.9,53.1,90,29.91,10.0,Calm,Calm,-,N/A,,Clear,0,2013-10-02 05:53:00
2:53 AM,55.9,52.0,87,29.90,10.0,Calm,Calm,-,N/A,,Clear,0,2013-10-02 06:53:00
3:53 AM,54.0,51.1,90,29.90,10.0,Calm,Calm,-,N/A,,Clear,0,2013-10-02 07:53:00
4:53 AM,54.0,50.0,86,29.90,10.0,Calm,Calm,-,N/A,,Clear,0,2013-10-02 08:53:00
5:53 AM,52.0,50.0,93,29.90,10.0,Calm,Calm,-,N/A,,Clear,0,2013-10-02 09:53:00
6:53 AM,51.1,48.0,89,29.90,10.0,Calm,Calm,-,N/A,,Clear,0,2013-10-02 10:53:00
7:53 AM,54.0,50.0,86,29.91,10.0,South,3.5,-,N/A,,Clear,190,2013-10-02 11:53:00
8:53 AM,59.0,53.1,81,29.91,10.0,Calm,Calm,-,N/A,,Clear,0,2013-10-02 12:53:00
9:53 AM,64.9,55.9,73,29.91,10.0,Calm,Calm,-,N/A,,Clear,0,2013-10-02 13:53:00
10:53 AM,73.0,57.9,59,29.88,10.0,Variable,3.5,-,N/A,,Clear,0,2013-10-02 14:53:00
11:53 AM,75.0,57.0,53,29.88,10.0,West,10.4,-,N/A,,Partly Cloudy,260,2013-10-02 15:53:00
12:53 PM,78.1,55.9,46,29.87,10.0,NW,10.4,-,N/A,,Partly Cloudy,320,2013-10-02 16:53:00
1:53 PM,79.0,55.9,45,29.85,10.0,WNW,12.7,19.6,N/A,,Partly Cloudy,290,2013-10-02 17:53:00
2:53 PM,80.1,55.9,43,29.85,10.0,West,10.4,-,N/A,,Scattered Clouds,280,2013-10-02 18:53:00
3:53 PM,79.0,55.0,44,29.85,10.0,WNW,12.7,-,N/A,,Partly Cloudy,300,2013-10-02 19:53:00
4:53 PM,79.0,55.9,45,29.85,10.0,West,6.9,-,N/A,,Partly Cloudy,280,2013-10-02 20:53:00
5:53 PM,75.9,55.9,50,29.86,10.0,West,8.1,-,N/A,,Clear,280,2013-10-02 21:53:00
6:53 PM,73.0,57.0,57,29.88,10.0,SW,4.6,-,N/A,,Clear,230,2013-10-02 22:53:00
7:53 PM,69.1,57.9,68,29.90,10.0,South,3.5,-,N/A,,Clear,180,2013-10-02 23:53:00
8:53 PM,69.1,57.9,68,29.91,10.0,Calm,Calm,-,N/A,,Clear,0,2013-10-03 00:53:00
9:53 PM,66.9,57.9,73,29.93,10.0,Calm,Calm,-,N/A,,Clear,0,2013-10-03 01:53:00
10:53 PM,64.0,57.0,78,29.95,10.0,Calm,Calm,-,N/A,,Clear,0,2013-10-03 02:53:00
11:53 PM,64.9,55.9,73,29.97,10.0,SSW,4.6,-,N/A,,Clear,200,2013-10-03 03:53:00